Liberia, Costa Rica

7:24 AM CST on May 27, 2017 (GMT -0600)
Daniel Oduber Quiros International

Weather History for MRLB - July, 2013

Change the Weather History Date:

Thursday, July 4, 2013

  Actual Average Record
Temperature  
Mean Temperature 80 °F -  
Max Temperature 87 °F 87 °F 95 °F (2014)
Min Temperature 73 °F 75 °F 73 °F (2008)
Cooling Degree Days 15    
Growing Degree Days 30 (Base 50)    
Moisture  
Dew Point 74 °F    
Average Humidity 80    
Maximum Humidity 94    
Minimum Humidity 60    
Precipitation  
Precipitation 0.04 in - - ()
Sea Level Pressure  
Sea Level Pressure 29.90 in    
Wind  
Wind Speed 5 mph ()    
Max Wind Speed 10 mph    
Max Gust Speed -    
Visibility 7.8 miles    
Events Fog , Rain , Thunderstorm    
Averages and records for this station are not official NWS values.
T = Trace of Precipitation, MM = Missing Value Source: Averaged Metar Reports

Daily Weather History Graph

Daily Weather History Graph

Search for Another Location

Airport or City:

Trip Planner

Search our weather history database for the weather conditions in past years. The results will help you decide how hot, cold, wet, or windy it might be!

Date:

Astronomy

Jul. 04, 2013 Rise Set
Actual Time 5:24 AM CST 6:08 PM CST
Civil Twilight 5:01 AM CST 6:31 PM CST
Nautical Twilight 4:34 AM CST 6:58 PM CST
Astronomical Twilight 4:07 AM CST 7:25 PM CST
Moon 2:28 AM CST (7/4) 3:22 PM CST (7/4)
Length of Visible Light 13h 29m
Length of Day
12h 43m
Waning Crescent, 11% of the Moon is Illuminated
Jul 4
Waning Crescent
Jul 8
New
Jul 15
First Quarter
Jul 22
Full
Jul 29
Last Quarter

Hourly Weather History & Observations

Time (CST) Temp. Heat Index Dew Point Humidity Pressure Visibility Wind Dir Wind Speed Gust Speed Precip Events Conditions
6:00 AM 74 °F - 72 °F 91% 29.92 in 12 mi NNE 5.8 mph - - Fog Patches of Fog
6:00 AM 73.4 °F - 71.6 °F 94% 29.90 in 6.2 mi NNE 5.8 mph - N/A   Mostly Cloudy
6:14 AM 73.4 °F - 71.6 °F 94% 29.91 in 6.2 mi ENE 5.8 mph - N/A   Mostly Cloudy
7:00 AM 75.2 °F - 73.4 °F 94% 29.92 in 6.2 mi NW 3.5 mph - N/A   Mostly Cloudy
8:00 AM 78.8 °F - 73.4 °F 83% 29.93 in 6.2 mi WNW 3.5 mph - N/A   Mostly Cloudy
9:00 AM 80 °F - 75 °F 79% 29.96 in 12 mi Calm Calm - -   Overcast
9:00 AM 78.8 °F - 75.2 °F 89% 29.95 in 6.2 mi Calm Calm - N/A   Mostly Cloudy
10:00 AM 82.4 °F 89.5 °F 75.2 °F 79% 29.96 in 6.2 mi West 5.8 mph - N/A   Mostly Cloudy
11:00 AM 84.2 °F 90.9 °F 73.4 °F 70% 29.94 in 6.2 mi West 6.9 mph - N/A   Mostly Cloudy
12:00 PM 86 °F - 74 °F 60% 29.93 in 12 mi WNW 8.1 mph - -   Partly Cloudy
12:00 PM 86.0 °F 93.4 °F 73.4 °F 66% 29.91 in 6.2 mi WNW 8.1 mph - N/A   Mostly Cloudy
1:00 PM 86.0 °F 93.4 °F 73.4 °F 66% 29.89 in 6.2 mi West 10.4 mph - N/A   Mostly Cloudy
2:00 PM 86.0 °F 95.1 °F 75.2 °F 70% 29.86 in 6.2 mi West 10.4 mph - N/A   Mostly Cloudy
3:00 PM 86 °F - 75 °F 63% 29.85 in 12 mi West 10.4 mph - - Rain Light Rain
3:00 PM 86.0 °F 95.1 °F 75.2 °F 70% 29.84 in 6.2 mi West 10.4 mph - N/A Rain , Thunderstorm Rain
4:00 PM 80.6 °F 86.2 °F 75.2 °F 84% 29.86 in 6.2 mi NNW 5.8 mph - N/A Thunderstorm Mostly Cloudy
5:00 PM 82.4 °F 90.9 °F 77.0 °F 84% 29.85 in - NW 2.3 mph - N/A   Clear
6:00 PM 81 °F - 76 °F 82% 29.88 in 12 mi NNW 2.3 mph - -   Overcast
6:00 PM 80.6 °F 87.1 °F 77.0 °F 89% 29.86 in 6.2 mi NNW 2.3 mph - N/A   Mostly Cloudy
7:00 PM 80.6 °F 87.1 °F 77.0 °F 89% 29.89 in - Calm Calm - N/A   Clear
8:00 PM 78.8 °F - 75.2 °F 89% 29.91 in - SSE 2.3 mph - N/A   Clear